GFSSW_prec_pwat_336.txt.gz
Precipitable_Water
0.75 0.74 0.70 0.68 0.65 0.65 0.62 0.60 0.58 0.56 0.56 0.54 0.51 0.48 0.45 0.45 0.38 0.40 0.38 0.33 0.30 0.34 0.45 0.47 0.58 0.66 0.68 0.69 0.72 0.70 0.50 0.47 0.52 0.52 0.57 0.61 0.49 0.47 0.28 0.20 0.19 0.20 0.28 0.33 0.37
0.72 0.71 0.70 0.69 0.67 0.65 0.64 0.61 0.59 0.57 0.56 0.53 0.50 0.46 0.45 0.45 0.32 0.32 0.40 0.36 0.32 0.37 0.37 0.43 0.45 0.50 0.52 0.61 0.67 0.59 0.49 0.58 0.66 0.62 0.52 0.50 0.41 0.37 0.20 0.19 0.20 0.22 0.26 0.33 0.33
0.70 0.68 0.64 0.64 0.64 0.64 0.63 0.62 0.59 0.58 0.56 0.52 0.48 0.45 0.44 0.44 0.30 0.33 0.41 0.36 0.34 0.43 0.46 0.44 0.40 0.39 0.37 0.49 0.57 0.58 0.56 0.61 0.61 0.62 0.54 0.43 0.34 0.28 0.20 0.19 0.23 0.23 0.25 0.29 0.30
0.74 0.71 0.65 0.62 0.61 0.61 0.61 0.60 0.58 0.57 0.55 0.51 0.47 0.45 0.42 0.37 0.23 0.40 0.41 0.36 0.34 0.41 0.41 0.40 0.37 0.34 0.28 0.30 0.41 0.39 0.51 0.53 0.55 0.51 0.36 0.30 0.29 0.25 0.23 0.24 0.30 0.27 0.29 0.31 0.28
0.79 0.75 0.69 0.61 0.57 0.58 0.58 0.57 0.56 0.55 0.53 0.51 0.47 0.46 0.33 0.29 0.31 0.40 0.37 0.35 0.33 0.33 0.34 0.33 0.33 0.32 0.24 0.23 0.27 0.29 0.34 0.30 0.27 0.23 0.21 0.19 0.16 0.18 0.19 0.24 0.30 0.27 0.25 0.25 0.25
0.86 0.82 0.74 0.63 0.55 0.53 0.55 0.54 0.53 0.52 0.51 0.50 0.48 0.45 0.32 0.20 0.38 0.39 0.35 0.34 0.32 0.32 0.34 0.30 0.29 0.32 0.26 0.21 0.23 0.28 0.22 0.18 0.18 0.17 0.16 0.14 0.15 0.17 0.16 0.21 0.23 0.23 0.21 0.23 0.24
0.96 0.86 0.76 0.68 0.59 0.52 0.52 0.52 0.51 0.50 0.50 0.48 0.47 0.41 0.25 0.20 0.35 0.34 0.38 0.36 0.31 0.30 0.30 0.29 0.27 0.29 0.28 0.20 0.22 0.18 0.14 0.16 0.17 0.18 0.18 0.21 0.13 0.12 0.19 0.18 0.17 0.21 0.21 0.22 0.24
1.09 0.97 0.83 0.69 0.64 0.57 0.52 0.51 0.50 0.49 0.49 0.47 0.46 0.37 0.20 0.32 0.34 0.29 0.34 0.36 0.35 0.32 0.27 0.26 0.27 0.28 0.24 0.28 0.19 0.16 0.20 0.17 0.23 0.18 0.20 0.17 0.15 0.17 0.18 0.17 0.14 0.16 0.18 0.20 0.24
1.21 1.09 0.94 0.75 0.65 0.58 0.52 0.50 0.49 0.48 0.47 0.46 0.36 0.32 0.20 0.32 0.24 0.26 0.31 0.28 0.32 0.31 0.30 0.26 0.26 0.24 0.22 0.20 0.23 0.23 0.18 0.16 0.17 0.18 0.17 0.15 0.16 0.19 0.18 0.16 0.15 0.17 0.19 0.19 0.22
1.26 1.18 1.05 0.87 0.65 0.56 0.49 0.53 0.48 0.46 0.45 0.44 0.38 0.23 0.25 0.21 0.26 0.27 0.30 0.29 0.27 0.27 0.24 0.26 0.24 0.19 0.21 0.21 0.17 0.18 0.15 0.14 0.12 0.16 0.14 0.12 0.11 0.17 0.18 0.16 0.15 0.17 0.19 0.20 0.20
1.24 1.24 1.14 0.97 0.69 0.50 0.51 0.50 0.41 0.37 0.38 0.24 0.27 0.20 0.23 0.28 0.28 0.24 0.28 0.26 0.25 0.22 0.16 0.28 0.16 0.18 0.23 0.20 0.18 0.17 0.12 0.10 0.13 0.17 0.13 0.10 0.12 0.13 0.18 0.17 0.17 0.18 0.19 0.19 0.19
1.26 1.22 1.17 1.02 0.74 0.55 0.59 0.46 0.43 0.48 0.26 0.34 0.30 0.27 0.28 0.27 0.20 0.23 0.28 0.20 0.20 0.15 0.20 0.17 0.12 0.22 0.22 0.18 0.12 0.12 0.12 0.12 0.15 0.16 0.14 0.10 0.10 0.13 0.15 0.16 0.17 0.18 0.18 0.18 0.20
1.27 1.23 1.15 1.10 0.82 0.63 0.48 0.47 0.62 0.60 0.29 0.25 0.31 0.29 0.26 0.26 0.19 0.21 0.25 0.21 0.18 0.16 0.16 0.14 0.19 0.24 0.18 0.14 0.13 0.14 0.13 0.12 0.12 0.13 0.13 0.15 0.11 0.10 0.13 0.18 0.20 0.20 0.22 0.22 0.21
1.24 1.23 1.15 1.10 0.79 0.56 0.55 0.59 0.62 0.62 0.22 0.21 0.28 0.31 0.33 0.30 0.20 0.27 0.28 0.23 0.19 0.15 0.17 0.15 0.20 0.17 0.15 0.12 0.15 0.12 0.18 0.15 0.12 0.12 0.11 0.19 0.09 0.16 0.15 0.15 0.17 0.16 0.17 0.21 0.21
1.11 1.15 1.16 1.07 0.89 0.55 0.62 0.69 0.64 0.52 0.12 0.28 0.30 0.39 0.34 0.26 0.25 0.25 0.29 0.24 0.17 0.18 0.17 0.16 0.17 0.14 0.12 0.14 0.18 0.15 0.19 0.14 0.13 0.12 0.14 0.14 0.12 0.10 0.16 0.16 0.14 0.15 0.16 0.18 0.21
0.95 1.08 1.13 1.02 0.99 0.81 0.61 0.67 0.61 0.26 0.14 0.22 0.27 0.24 0.25 0.26 0.25 0.28 0.26 0.28 0.25 0.20 0.19 0.17 0.22 0.20 0.17 0.19 0.18 0.19 0.15 0.15 0.17 0.16 0.11 0.14 0.13 0.12 0.15 0.17 0.15 0.17 0.19 0.20 0.21
0.83 0.98 0.98 0.98 0.78 0.98 0.68 0.53 0.26 0.21 0.29 0.25 0.23 0.24 0.22 0.23 0.24 0.23 0.20 0.19 0.16 0.12 0.11 0.15 0.15 0.18 0.19 0.15 0.17 0.16 0.13 0.12 0.15 0.12 0.10 0.19 0.17 0.13 0.22 0.22 0.18 0.19 0.21 0.22 0.24
0.78 0.83 0.91 0.89 0.97 0.96 0.64 0.39 0.19 0.23 0.26 0.32 0.28 0.25 0.19 0.23 0.24 0.23 0.21 0.17 0.20 0.18 0.14 0.14 0.12 0.18 0.19 0.14 0.16 0.16 0.13 0.13 0.12 0.16 0.18 0.22 0.14 0.13 0.21 0.22 0.22 0.23 0.24 0.25 0.26
0.70 0.71 0.71 0.76 0.99 0.91 0.48 0.27 0.21 0.21 0.27 0.29 0.30 0.25 0.22 0.22 0.23 0.23 0.21 0.19 0.21 0.20 0.14 0.13 0.14 0.21 0.22 0.20 0.18 0.17 0.13 0.18 0.17 0.20 0.18 0.18 0.19 0.22 0.24 0.22 0.22 0.24 0.27 0.27 0.28
0.60 0.59 0.54 0.89 1.01 0.81 0.37 0.25 0.26 0.30 0.30 0.30 0.24 0.26 0.23 0.23 0.20 0.22 0.22 0.22 0.21 0.23 0.23 0.17 0.13 0.20 0.20 0.21 0.19 0.19 0.22 0.12 0.13 0.09 0.12 0.14 0.18 0.17 0.22 0.23 0.23 0.24 0.28 0.29 0.29
0.60 0.44 0.64 0.80 0.91 0.65 0.31 0.26 0.29 0.35 0.33 0.27 0.26 0.25 0.27 0.28 0.24 0.21 0.22 0.24 0.25 0.24 0.25 0.21 0.17 0.17 0.19 0.15 0.12 0.14 0.14 0.16 0.19 0.15 0.16 0.18 0.21 0.28 0.26 0.27 0.25 0.25 0.30 0.31 0.32
0.55 0.34 0.70 0.87 0.50 0.54 0.39 0.40 0.35 0.31 0.35 0.33 0.31 0.28 0.26 0.28 0.29 0.24 0.22 0.24 0.28 0.28 0.22 0.23 0.19 0.14 0.15 0.20 0.20 0.18 0.14 0.15 0.13 0.13 0.17 0.18 0.21 0.36 0.32 0.32 0.30 0.26 0.30 0.35 0.38
0.45 0.44 0.68 0.80 0.39 0.43 0.52 0.50 0.48 0.36 0.31 0.32 0.32 0.31 0.29 0.26 0.25 0.29 0.27 0.32 0.30 0.27 0.23 0.24 0.19 0.14 0.15 0.19 0.20 0.16 0.16 0.17 0.17 0.18 0.16 0.17 0.15 0.28 0.31 0.33 0.32 0.29 0.29 0.35 0.40
0.45 0.34 0.45 0.58 0.61 0.50 0.46 0.47 0.45 0.50 0.45 0.36 0.34 0.36 0.30 0.26 0.27 0.26 0.31 0.35 0.32 0.29 0.30 0.30 0.21 0.15 0.12 0.16 0.21 0.17 0.16 0.17 0.17 0.13 0.14 0.15 0.21 0.28 0.32 0.31 0.33 0.32 0.32 0.34 0.38
0.43 0.36 0.48 0.34 0.41 0.47 0.49 0.46 0.44 0.45 0.48 0.45 0.37 0.34 0.32 0.26 0.26 0.24 0.28 0.35 0.35 0.32 0.29 0.28 0.19 0.20 0.19 0.18 0.20 0.19 0.19 0.18 0.15 0.16 0.14 0.16 0.17 0.20 0.24 0.31 0.35 0.36 0.36 0.34 0.36
0.35 0.36 0.44 0.42 0.49 0.42 0.48 0.43 0.41 0.47 0.48 0.41 0.39 0.42 0.40 0.31 0.30 0.26 0.28 0.29 0.31 0.36 0.28 0.27 0.20 0.21 0.17 0.20 0.19 0.17 0.18 0.19 0.19 0.18 0.17 0.18 0.16 0.22 0.25 0.28 0.29 0.32 0.37 0.36 0.36
0.49 0.50 0.45 0.41 0.39 0.37 0.39 0.41 0.44 0.52 0.52 0.52 0.46 0.44 0.42 0.43 0.43 0.40 0.35 0.32 0.34 0.34 0.33 0.28 0.23 0.19 0.15 0.21 0.20 0.15 0.15 0.16 0.17 0.18 0.18 0.14 0.17 0.23 0.22 0.23 0.25 0.27 0.29 0.34 0.37

GFSSW_prec_pwat_339.txt.gz
Precipitable_Water
0.70 0.70 0.68 0.66 0.64 0.61 0.60 0.60 0.58 0.56 0.55 0.54 0.51 0.47 0.45 0.45 0.38 0.31 0.33 0.36 0.33 0.35 0.36 0.45 0.57 0.66 0.67 0.61 0.64 0.71 0.49 0.43 0.49 0.52 0.53 0.60 0.55 0.55 0.44 0.23 0.23 0.22 0.25 0.29 0.34
0.69 0.69 0.65 0.62 0.61 0.60 0.59 0.58 0.57 0.55 0.56 0.53 0.50 0.47 0.45 0.46 0.32 0.25 0.39 0.40 0.37 0.34 0.32 0.37 0.41 0.53 0.54 0.58 0.63 0.52 0.39 0.52 0.59 0.58 0.55 0.55 0.49 0.45 0.32 0.17 0.20 0.20 0.27 0.34 0.37
0.76 0.73 0.67 0.61 0.58 0.57 0.57 0.57 0.56 0.54 0.55 0.52 0.49 0.46 0.44 0.45 0.34 0.33 0.40 0.40 0.35 0.38 0.43 0.42 0.42 0.43 0.41 0.52 0.60 0.56 0.53 0.57 0.62 0.65 0.60 0.53 0.46 0.39 0.24 0.17 0.21 0.20 0.26 0.29 0.29
0.83 0.80 0.74 0.65 0.58 0.54 0.55 0.55 0.54 0.54 0.53 0.51 0.48 0.46 0.41 0.36 0.17 0.36 0.40 0.37 0.33 0.35 0.39 0.36 0.35 0.33 0.30 0.34 0.47 0.48 0.57 0.56 0.59 0.63 0.56 0.47 0.44 0.27 0.23 0.19 0.27 0.28 0.31 0.32 0.28
0.90 0.84 0.79 0.68 0.61 0.56 0.52 0.52 0.52 0.52 0.51 0.50 0.49 0.47 0.31 0.25 0.27 0.40 0.39 0.35 0.35 0.32 0.32 0.31 0.31 0.29 0.25 0.25 0.29 0.30 0.38 0.41 0.41 0.39 0.31 0.30 0.22 0.20 0.19 0.22 0.28 0.30 0.31 0.29 0.29
1.02 0.94 0.84 0.74 0.64 0.59 0.54 0.52 0.51 0.50 0.49 0.49 0.49 0.46 0.31 0.15 0.35 0.39 0.35 0.35 0.31 0.29 0.31 0.29 0.27 0.30 0.27 0.22 0.21 0.27 0.26 0.23 0.20 0.19 0.19 0.13 0.11 0.15 0.13 0.21 0.25 0.25 0.25 0.27 0.26
1.15 1.06 0.96 0.82 0.68 0.61 0.54 0.50 0.49 0.48 0.48 0.49 0.49 0.42 0.26 0.17 0.33 0.35 0.33 0.36 0.32 0.28 0.26 0.29 0.25 0.27 0.29 0.21 0.24 0.23 0.18 0.17 0.19 0.17 0.16 0.19 0.12 0.10 0.15 0.18 0.20 0.21 0.22 0.24 0.25
1.22 1.15 1.05 0.93 0.73 0.61 0.54 0.47 0.46 0.47 0.48 0.48 0.47 0.36 0.18 0.31 0.34 0.31 0.30 0.31 0.35 0.32 0.27 0.26 0.26 0.26 0.26 0.29 0.23 0.18 0.21 0.16 0.24 0.21 0.19 0.18 0.11 0.18 0.16 0.16 0.15 0.19 0.21 0.22 0.23
1.22 1.19 1.15 1.03 0.84 0.58 0.49 0.48 0.48 0.48 0.47 0.47 0.37 0.32 0.18 0.31 0.25 0.27 0.28 0.26 0.31 0.31 0.30 0.28 0.25 0.22 0.23 0.19 0.26 0.25 0.17 0.17 0.19 0.23 0.19 0.16 0.12 0.19 0.20 0.16 0.14 0.14 0.17 0.20 0.21
1.24 1.20 1.17 1.10 0.92 0.56 0.53 0.55 0.51 0.48 0.45 0.44 0.40 0.25 0.24 0.20 0.26 0.27 0.29 0.28 0.25 0.26 0.23 0.28 0.23 0.19 0.22 0.21 0.15 0.14 0.15 0.13 0.14 0.18 0.17 0.13 0.09 0.16 0.19 0.18 0.15 0.15 0.18 0.19 0.20
1.28 1.23 1.17 1.11 0.98 0.68 0.55 0.48 0.40 0.38 0.41 0.27 0.24 0.20 0.22 0.27 0.30 0.23 0.27 0.25 0.25 0.21 0.15 0.23 0.17 0.16 0.20 0.22 0.19 0.18 0.15 0.12 0.13 0.17 0.15 0.12 0.10 0.10 0.13 0.17 0.17 0.17 0.16 0.18 0.19
1.30 1.25 1.17 1.10 1.00 0.79 0.61 0.41 0.45 0.50 0.26 0.32 0.31 0.30 0.31 0.28 0.19 0.22 0.27 0.19 0.19 0.13 0.19 0.17 0.13 0.18 0.23 0.22 0.18 0.11 0.10 0.10 0.14 0.17 0.15 0.12 0.09 0.10 0.12 0.14 0.16 0.17 0.17 0.17 0.19
1.17 1.20 1.19 1.08 1.00 0.72 0.57 0.51 0.63 0.60 0.31 0.26 0.29 0.26 0.28 0.29 0.21 0.19 0.25 0.21 0.18 0.15 0.16 0.14 0.16 0.22 0.20 0.17 0.12 0.11 0.12 0.12 0.11 0.13 0.13 0.13 0.10 0.11 0.12 0.14 0.17 0.18 0.19 0.20 0.19
0.96 1.07 1.08 1.10 0.89 0.77 0.59 0.69 0.67 0.63 0.22 0.20 0.27 0.31 0.32 0.30 0.23 0.27 0.28 0.23 0.18 0.13 0.15 0.15 0.18 0.16 0.16 0.14 0.14 0.10 0.16 0.15 0.13 0.10 0.07 0.17 0.08 0.10 0.13 0.11 0.16 0.18 0.19 0.20 0.21
0.79 0.87 0.98 1.01 0.89 0.74 0.67 0.63 0.67 0.58 0.13 0.27 0.30 0.41 0.36 0.29 0.26 0.25 0.33 0.26 0.17 0.16 0.17 0.14 0.17 0.15 0.13 0.13 0.16 0.13 0.18 0.15 0.13 0.11 0.12 0.11 0.10 0.09 0.13 0.14 0.13 0.16 0.18 0.18 0.21
0.78 0.77 0.90 0.87 0.85 0.86 0.87 0.67 0.58 0.23 0.17 0.26 0.30 0.24 0.25 0.28 0.27 0.29 0.27 0.29 0.27 0.18 0.19 0.17 0.21 0.19 0.17 0.18 0.17 0.19 0.15 0.14 0.16 0.16 0.09 0.12 0.12 0.08 0.11 0.12 0.16 0.17 0.17 0.16 0.20
0.69 0.76 0.77 0.87 0.65 0.93 0.78 0.55 0.23 0.16 0.27 0.27 0.27 0.27 0.24 0.22 0.23 0.24 0.23 0.20 0.17 0.13 0.12 0.15 0.15 0.18 0.19 0.14 0.18 0.15 0.12 0.08 0.12 0.12 0.07 0.17 0.15 0.12 0.15 0.19 0.20 0.18 0.15 0.18 0.19
0.62 0.67 0.71 0.75 0.88 0.95 0.63 0.35 0.16 0.21 0.21 0.28 0.29 0.30 0.25 0.26 0.24 0.23 0.22 0.19 0.21 0.18 0.15 0.13 0.11 0.17 0.21 0.16 0.13 0.14 0.12 0.09 0.08 0.12 0.14 0.22 0.12 0.14 0.19 0.23 0.23 0.21 0.19 0.20 0.22
0.62 0.60 0.55 0.60 0.81 0.88 0.47 0.20 0.17 0.19 0.25 0.25 0.27 0.24 0.25 0.28 0.27 0.24 0.21 0.20 0.22 0.21 0.14 0.14 0.14 0.21 0.22 0.22 0.18 0.15 0.12 0.17 0.14 0.16 0.15 0.17 0.19 0.22 0.21 0.20 0.22 0.20 0.23 0.23 0.24
0.51 0.50 0.43 0.62 0.84 0.76 0.38 0.22 0.22 0.28 0.27 0.27 0.20 0.23 0.21 0.24 0.25 0.26 0.21 0.22 0.23 0.25 0.24 0.18 0.14 0.21 0.21 0.23 0.21 0.18 0.20 0.12 0.13 0.07 0.08 0.11 0.14 0.14 0.18 0.20 0.21 0.21 0.23 0.26 0.26
0.47 0.35 0.53 0.76 0.81 0.59 0.30 0.25 0.26 0.29 0.33 0.26 0.23 0.22 0.24 0.24 0.26 0.26 0.26 0.25 0.26 0.25 0.27 0.23 0.18 0.17 0.20 0.16 0.14 0.15 0.15 0.15 0.15 0.13 0.11 0.12 0.15 0.25 0.27 0.26 0.24 0.23 0.23 0.27 0.28
0.46 0.27 0.61 0.77 0.43 0.49 0.38 0.40 0.40 0.29 0.34 0.31 0.30 0.26 0.24 0.26 0.25 0.26 0.25 0.30 0.31 0.27 0.22 0.25 0.21 0.15 0.16 0.21 0.21 0.19 0.15 0.15 0.11 0.10 0.14 0.15 0.13 0.34 0.31 0.29 0.29 0.28 0.26 0.29 0.31
0.33 0.39 0.55 0.70 0.32 0.36 0.39 0.42 0.48 0.40 0.38 0.33 0.29 0.30 0.30 0.25 0.22 0.27 0.27 0.34 0.37 0.31 0.25 0.26 0.21 0.15 0.15 0.19 0.21 0.18 0.17 0.16 0.15 0.16 0.12 0.12 0.11 0.30 0.32 0.31 0.32 0.31 0.30 0.29 0.34
0.34 0.25 0.44 0.45 0.52 0.43 0.38 0.39 0.38 0.55 0.49 0.47 0.42 0.38 0.32 0.28 0.28 0.25 0.28 0.33 0.35 0.36 0.35 0.30 0.22 0.17 0.12 0.16 0.21 0.17 0.19 0.19 0.16 0.11 0.11 0.11 0.14 0.19 0.29 0.30 0.32 0.33 0.33 0.30 0.33
0.38 0.28 0.40 0.29 0.35 0.33 0.43 0.43 0.40 0.40 0.50 0.53 0.41 0.41 0.37 0.28 0.27 0.24 0.27 0.31 0.34 0.36 0.35 0.32 0.21 0.21 0.20 0.20 0.20 0.20 0.19 0.19 0.17 0.16 0.12 0.12 0.11 0.14 0.19 0.28 0.32 0.33 0.34 0.35 0.34
0.35 0.30 0.34 0.33 0.38 0.37 0.38 0.31 0.34 0.40 0.47 0.47 0.47 0.45 0.46 0.34 0.33 0.29 0.30 0.28 0.28 0.33 0.29 0.33 0.25 0.24 0.19 0.21 0.21 0.18 0.18 0.18 0.19 0.19 0.18 0.16 0.13 0.19 0.21 0.22 0.25 0.27 0.33 0.36 0.37
0.52 0.49 0.38 0.30 0.30 0.31 0.32 0.37 0.39 0.42 0.50 0.49 0.53 0.52 0.45 0.47 0.51 0.49 0.45 0.40 0.36 0.32 0.31 0.29 0.27 0.27 0.20 0.22 0.20 0.16 0.15 0.17 0.18 0.18 0.17 0.14 0.15 0.19 0.19 0.19 0.20 0.23 0.26 0.30 0.36

GFSSW_prec_pwat_342.txt.gz
Precipitable_Water
0.68 0.67 0.65 0.60 0.58 0.57 0.57 0.57 0.56 0.54 0.53 0.54 0.52 0.50 0.47 0.44 0.39 0.29 0.26 0.36 0.33 0.32 0.37 0.44 0.54 0.65 0.65 0.55 0.62 0.65 0.42 0.37 0.49 0.49 0.48 0.57 0.52 0.56 0.54 0.35 0.25 0.24 0.22 0.28 0.39
0.78 0.74 0.70 0.63 0.58 0.54 0.53 0.54 0.54 0.53 0.53 0.53 0.50 0.48 0.46 0.45 0.32 0.27 0.37 0.39 0.35 0.35 0.34 0.34 0.41 0.53 0.53 0.53 0.58 0.49 0.42 0.46 0.56 0.54 0.50 0.55 0.55 0.50 0.43 0.30 0.20 0.18 0.24 0.32 0.36
0.84 0.81 0.76 0.67 0.61 0.57 0.54 0.52 0.51 0.51 0.53 0.52 0.48 0.47 0.45 0.44 0.31 0.30 0.37 0.37 0.36 0.37 0.43 0.42 0.42 0.45 0.46 0.53 0.57 0.52 0.41 0.53 0.54 0.55 0.57 0.53 0.51 0.51 0.38 0.21 0.17 0.15 0.20 0.28 0.31
0.93 0.85 0.80 0.73 0.65 0.60 0.57 0.54 0.53 0.52 0.51 0.50 0.48 0.46 0.43 0.35 0.14 0.33 0.38 0.36 0.35 0.35 0.37 0.35 0.34 0.31 0.33 0.41 0.51 0.46 0.50 0.53 0.57 0.59 0.54 0.51 0.53 0.46 0.35 0.21 0.20 0.23 0.29 0.32 0.29
1.05 1.00 0.91 0.81 0.70 0.62 0.58 0.55 0.53 0.52 0.50 0.49 0.50 0.48 0.32 0.21 0.21 0.38 0.38 0.36 0.36 0.32 0.30 0.30 0.28 0.27 0.24 0.29 0.35 0.40 0.46 0.48 0.50 0.49 0.49 0.45 0.39 0.37 0.23 0.23 0.25 0.28 0.31 0.30 0.30
1.15 1.08 1.01 0.92 0.80 0.65 0.58 0.53 0.50 0.49 0.49 0.49 0.50 0.49 0.30 0.13 0.31 0.37 0.34 0.35 0.32 0.27 0.29 0.31 0.28 0.29 0.27 0.23 0.22 0.27 0.32 0.30 0.29 0.23 0.22 0.19 0.18 0.16 0.12 0.21 0.22 0.25 0.28 0.30 0.29
1.23 1.15 1.09 1.02 0.91 0.71 0.58 0.49 0.47 0.47 0.47 0.49 0.49 0.43 0.26 0.16 0.30 0.34 0.33 0.32 0.34 0.28 0.23 0.29 0.26 0.26 0.28 0.22 0.25 0.23 0.20 0.21 0.19 0.21 0.20 0.22 0.12 0.09 0.11 0.17 0.18 0.22 0.25 0.27 0.27
1.24 1.18 1.13 1.07 0.97 0.76 0.56 0.52 0.50 0.47 0.46 0.49 0.49 0.36 0.17 0.30 0.33 0.30 0.31 0.29 0.34 0.33 0.27 0.27 0.25 0.25 0.28 0.30 0.24 0.20 0.19 0.15 0.26 0.25 0.21 0.17 0.06 0.15 0.18 0.15 0.16 0.20 0.23 0.25 0.25
1.27 1.22 1.17 1.11 1.03 0.80 0.56 0.54 0.53 0.48 0.47 0.48 0.37 0.31 0.17 0.32 0.25 0.30 0.29 0.25 0.29 0.30 0.30 0.30 0.25 0.21 0.24 0.20 0.25 0.26 0.18 0.18 0.19 0.23 0.21 0.16 0.08 0.16 0.19 0.14 0.14 0.17 0.20 0.22 0.23
1.29 1.24 1.20 1.13 1.06 0.89 0.58 0.53 0.55 0.51 0.46 0.46 0.39 0.24 0.22 0.20 0.26 0.27 0.29 0.28 0.25 0.25 0.22 0.26 0.22 0.18 0.20 0.20 0.15 0.14 0.14 0.13 0.14 0.17 0.19 0.15 0.11 0.13 0.18 0.18 0.14 0.15 0.16 0.18 0.19
1.26 1.23 1.18 1.11 1.03 0.90 0.67 0.46 0.35 0.35 0.40 0.26 0.23 0.18 0.21 0.27 0.31 0.25 0.27 0.24 0.24 0.21 0.14 0.21 0.17 0.14 0.18 0.22 0.22 0.18 0.15 0.13 0.13 0.16 0.16 0.14 0.12 0.12 0.14 0.16 0.16 0.17 0.16 0.15 0.17
1.16 1.17 1.20 1.14 1.03 0.87 0.66 0.44 0.47 0.51 0.27 0.34 0.32 0.33 0.32 0.31 0.20 0.23 0.28 0.19 0.18 0.13 0.17 0.16 0.13 0.17 0.21 0.22 0.18 0.15 0.12 0.09 0.13 0.16 0.15 0.12 0.09 0.10 0.11 0.12 0.13 0.14 0.16 0.16 0.17
0.93 0.93 1.01 1.06 1.05 0.86 0.70 0.57 0.70 0.64 0.33 0.27 0.32 0.26 0.28 0.33 0.23 0.21 0.25 0.23 0.17 0.15 0.15 0.13 0.14 0.20 0.18 0.17 0.15 0.13 0.10 0.10 0.11 0.14 0.14 0.12 0.08 0.09 0.11 0.12 0.13 0.15 0.17 0.18 0.17
0.74 0.73 0.77 0.91 0.77 0.84 0.70 0.74 0.68 0.68 0.26 0.22 0.28 0.31 0.29 0.28 0.22 0.29 0.28 0.23 0.19 0.14 0.15 0.14 0.17 0.15 0.15 0.14 0.15 0.10 0.14 0.14 0.13 0.11 0.06 0.14 0.05 0.07 0.10 0.12 0.12 0.12 0.15 0.16 0.18
0.65 0.69 0.70 0.85 0.74 0.67 0.80 0.76 0.70 0.59 0.14 0.31 0.31 0.41 0.37 0.28 0.26 0.25 0.32 0.27 0.19 0.17 0.17 0.13 0.16 0.15 0.14 0.13 0.16 0.11 0.17 0.14 0.13 0.11 0.11 0.10 0.08 0.06 0.10 0.10 0.11 0.12 0.15 0.17 0.20
0.59 0.62 0.69 0.73 0.78 0.81 0.92 0.69 0.56 0.21 0.14 0.26 0.33 0.31 0.28 0.29 0.27 0.28 0.27 0.30 0.28 0.21 0.20 0.17 0.21 0.19 0.17 0.19 0.18 0.18 0.14 0.14 0.14 0.14 0.08 0.09 0.09 0.07 0.08 0.09 0.12 0.13 0.15 0.18 0.19
0.51 0.56 0.60 0.68 0.56 0.89 0.91 0.50 0.20 0.13 0.23 0.22 0.25 0.27 0.27 0.26 0.27 0.25 0.22 0.21 0.19 0.15 0.13 0.15 0.16 0.19 0.20 0.15 0.18 0.16 0.12 0.05 0.08 0.10 0.06 0.15 0.13 0.10 0.12 0.15 0.15 0.15 0.16 0.17 0.19
0.48 0.51 0.53 0.58 0.73 0.86 0.71 0.32 0.14 0.18 0.18 0.26 0.24 0.25 0.24 0.27 0.28 0.28 0.24 0.19 0.22 0.20 0.15 0.12 0.11 0.17 0.20 0.16 0.13 0.13 0.11 0.06 0.05 0.09 0.13 0.20 0.12 0.11 0.17 0.20 0.21 0.21 0.20 0.19 0.19
0.50 0.45 0.45 0.47 0.77 0.80 0.48 0.19 0.15 0.19 0.25 0.24 0.24 0.20 0.21 0.25 0.26 0.27 0.27 0.24 0.22 0.21 0.15 0.14 0.13 0.22 0.22 0.22 0.21 0.15 0.11 0.15 0.11 0.13 0.10 0.12 0.16 0.18 0.21 0.21 0.21 0.21 0.21 0.20 0.20
0.42 0.40 0.38 0.58 0.72 0.65 0.36 0.22 0.22 0.28 0.29 0.27 0.20 0.22 0.17 0.20 0.21 0.23 0.24 0.27 0.26 0.26 0.24 0.19 0.14 0.20 0.23 0.24 0.22 0.19 0.20 0.11 0.12 0.06 0.06 0.08 0.11 0.11 0.15 0.19 0.19 0.20 0.20 0.20 0.22
0.43 0.29 0.52 0.72 0.71 0.51 0.25 0.25 0.26 0.31 0.33 0.27 0.24 0.22 0.23 0.22 0.23 0.22 0.23 0.26 0.30 0.29 0.28 0.22 0.19 0.18 0.21 0.19 0.17 0.18 0.15 0.16 0.14 0.12 0.08 0.09 0.10 0.22 0.22 0.25 0.26 0.25 0.23 0.23 0.24
0.41 0.20 0.58 0.78 0.37 0.41 0.33 0.35 0.41 0.32 0.41 0.36 0.31 0.28 0.25 0.26 0.24 0.23 0.22 0.25 0.31 0.30 0.26 0.26 0.21 0.16 0.18 0.22 0.23 0.21 0.17 0.17 0.12 0.09 0.13 0.12 0.09 0.22 0.28 0.28 0.28 0.29 0.26 0.26 0.28
0.31 0.30 0.52 0.59 0.31 0.29 0.37 0.39 0.45 0.38 0.37 0.40 0.34 0.33 0.34 0.30 0.24 0.25 0.26 0.32 0.32 0.30 0.27 0.30 0.25 0.17 0.17 0.21 0.23 0.18 0.18 0.18 0.18 0.16 0.11 0.09 0.09 0.22 0.27 0.31 0.31 0.31 0.31 0.28 0.29
0.33 0.21 0.39 0.44 0.45 0.39 0.35 0.34 0.35 0.47 0.41 0.48 0.45 0.44 0.38 0.33 0.35 0.28 0.26 0.32 0.34 0.32 0.34 0.32 0.25 0.23 0.16 0.16 0.20 0.17 0.19 0.19 0.17 0.13 0.12 0.10 0.10 0.11 0.16 0.31 0.34 0.32 0.33 0.33 0.31
0.40 0.26 0.37 0.25 0.33 0.34 0.35 0.38 0.35 0.35 0.45 0.46 0.43 0.43 0.41 0.33 0.32 0.29 0.32 0.31 0.34 0.35 0.33 0.30 0.22 0.23 0.25 0.25 0.23 0.20 0.19 0.20 0.18 0.17 0.13 0.12 0.12 0.13 0.14 0.15 0.23 0.30 0.31 0.31 0.31
0.36 0.31 0.34 0.27 0.30 0.30 0.34 0.32 0.29 0.33 0.38 0.37 0.38 0.44 0.48 0.42 0.43 0.36 0.37 0.34 0.30 0.34 0.32 0.33 0.23 0.26 0.21 0.25 0.26 0.21 0.19 0.19 0.18 0.18 0.17 0.18 0.14 0.19 0.19 0.19 0.19 0.20 0.26 0.30 0.32
0.52 0.50 0.40 0.31 0.28 0.23 0.23 0.28 0.32 0.38 0.39 0.44 0.43 0.41 0.41 0.47 0.56 0.57 0.57 0.52 0.44 0.36 0.32 0.30 0.26 0.23 0.19 0.24 0.24 0.19 0.20 0.18 0.17 0.19 0.18 0.14 0.13 0.18 0.17 0.19 0.19 0.20 0.21 0.22 0.26

GFSSW_prec_pwat_345.txt.gz
Precipitable_Water
0.80 0.75 0.72 0.66 0.60 0.57 0.54 0.53 0.52 0.51 0.51 0.52 0.52 0.50 0.48 0.46 0.41 0.31 0.22 0.34 0.34 0.32 0.37 0.42 0.50 0.63 0.66 0.54 0.59 0.60 0.38 0.34 0.45 0.48 0.46 0.53 0.48 0.53 0.55 0.43 0.32 0.28 0.22 0.26 0.40
0.85 0.82 0.78 0.72 0.65 0.61 0.58 0.55 0.54 0.53 0.51 0.51 0.50 0.48 0.47 0.47 0.32 0.29 0.35 0.37 0.35 0.37 0.35 0.31 0.38 0.50 0.52 0.51 0.55 0.45 0.35 0.39 0.51 0.56 0.49 0.52 0.51 0.51 0.47 0.39 0.29 0.26 0.25 0.29 0.39
0.96 0.91 0.86 0.80 0.72 0.65 0.60 0.57 0.56 0.54 0.53 0.51 0.48 0.47 0.46 0.46 0.25 0.29 0.37 0.35 0.34 0.39 0.42 0.37 0.38 0.42 0.45 0.51 0.53 0.50 0.36 0.48 0.48 0.54 0.54 0.51 0.51 0.52 0.46 0.35 0.30 0.18 0.17 0.26 0.32
1.05 1.01 0.96 0.89 0.80 0.71 0.64 0.59 0.55 0.53 0.52 0.51 0.48 0.47 0.45 0.36 0.12 0.33 0.38 0.35 0.35 0.36 0.36 0.33 0.32 0.32 0.36 0.41 0.51 0.47 0.46 0.51 0.53 0.54 0.51 0.49 0.51 0.48 0.47 0.38 0.33 0.21 0.23 0.29 0.29
1.16 1.11 1.04 0.97 0.90 0.78 0.66 0.58 0.53 0.51 0.50 0.50 0.49 0.48 0.33 0.19 0.17 0.36 0.38 0.36 0.37 0.31 0.29 0.28 0.27 0.26 0.25 0.35 0.41 0.43 0.42 0.43 0.48 0.48 0.45 0.46 0.44 0.45 0.41 0.35 0.29 0.24 0.26 0.28 0.30
1.24 1.15 1.07 1.03 0.95 0.86 0.66 0.55 0.52 0.50 0.50 0.49 0.50 0.49 0.29 0.13 0.27 0.36 0.34 0.34 0.34 0.27 0.29 0.29 0.29 0.28 0.26 0.26 0.26 0.33 0.38 0.40 0.43 0.41 0.37 0.28 0.27 0.30 0.25 0.22 0.22 0.23 0.23 0.28 0.29
1.27 1.20 1.14 1.08 1.01 0.89 0.71 0.54 0.52 0.51 0.48 0.48 0.50 0.44 0.24 0.16 0.30 0.34 0.33 0.31 0.35 0.31 0.22 0.28 0.27 0.23 0.28 0.22 0.27 0.24 0.20 0.23 0.22 0.23 0.22 0.23 0.18 0.18 0.13 0.14 0.16 0.21 0.23 0.26 0.28
1.29 1.25 1.20 1.14 1.05 0.94 0.77 0.54 0.51 0.50 0.47 0.48 0.48 0.37 0.16 0.27 0.32 0.29 0.31 0.29 0.34 0.34 0.30 0.29 0.27 0.23 0.27 0.29 0.25 0.20 0.19 0.14 0.23 0.27 0.26 0.25 0.13 0.13 0.16 0.16 0.12 0.16 0.21 0.23 0.25
1.26 1.23 1.20 1.15 1.09 0.98 0.79 0.52 0.53 0.50 0.49 0.48 0.36 0.29 0.16 0.31 0.23 0.29 0.31 0.24 0.29 0.31 0.31 0.31 0.26 0.20 0.24 0.20 0.22 0.26 0.18 0.19 0.20 0.28 0.27 0.23 0.09 0.12 0.19 0.18 0.13 0.14 0.17 0.20 0.23
1.21 1.18 1.14 1.11 1.07 0.96 0.79 0.57 0.53 0.54 0.48 0.48 0.40 0.24 0.22 0.19 0.24 0.27 0.28 0.28 0.25 0.25 0.23 0.25 0.23 0.17 0.18 0.16 0.15 0.17 0.16 0.16 0.16 0.20 0.19 0.16 0.11 0.14 0.17 0.16 0.15 0.13 0.15 0.17 0.19
1.20 1.16 1.10 1.07 1.05 0.89 0.76 0.51 0.37 0.33 0.41 0.26 0.25 0.21 0.21 0.26 0.30 0.25 0.27 0.24 0.24 0.21 0.13 0.20 0.17 0.11 0.15 0.19 0.22 0.20 0.16 0.14 0.15 0.16 0.15 0.13 0.12 0.11 0.14 0.16 0.14 0.15 0.14 0.15 0.16
0.97 0.99 0.99 0.96 1.05 0.91 0.77 0.50 0.54 0.57 0.29 0.35 0.36 0.36 0.35 0.33 0.20 0.22 0.27 0.18 0.17 0.12 0.16 0.15 0.12 0.18 0.21 0.21 0.19 0.16 0.13 0.11 0.11 0.15 0.14 0.12 0.09 0.09 0.10 0.11 0.12 0.13 0.14 0.14 0.16
0.67 0.68 0.74 0.68 0.91 0.84 0.75 0.71 0.79 0.67 0.35 0.31 0.35 0.28 0.27 0.33 0.26 0.22 0.25 0.22 0.16 0.13 0.14 0.12 0.14 0.19 0.18 0.17 0.15 0.14 0.12 0.10 0.10 0.13 0.13 0.11 0.06 0.07 0.09 0.11 0.12 0.12 0.13 0.15 0.16
0.55 0.56 0.57 0.58 0.61 0.74 0.64 0.89 0.81 0.71 0.26 0.23 0.30 0.32 0.30 0.28 0.22 0.30 0.30 0.23 0.19 0.14 0.15 0.13 0.16 0.15 0.15 0.14 0.16 0.10 0.15 0.13 0.12 0.10 0.06 0.12 0.04 0.05 0.06 0.08 0.11 0.11 0.12 0.13 0.15
0.46 0.51 0.55 0.65 0.62 0.58 0.72 0.89 0.71 0.55 0.12 0.30 0.36 0.43 0.37 0.26 0.26 0.26 0.33 0.27 0.20 0.18 0.17 0.12 0.15 0.15 0.13 0.14 0.17 0.12 0.17 0.14 0.13 0.10 0.10 0.09 0.07 0.05 0.08 0.06 0.08 0.11 0.11 0.12 0.14
0.45 0.44 0.53 0.54 0.59 0.71 0.85 0.78 0.55 0.19 0.10 0.22 0.30 0.30 0.32 0.32 0.29 0.28 0.27 0.30 0.29 0.23 0.22 0.18 0.21 0.18 0.17 0.19 0.19 0.19 0.15 0.14 0.15 0.12 0.05 0.09 0.08 0.05 0.06 0.07 0.08 0.11 0.12 0.13 0.14
0.46 0.43 0.44 0.55 0.41 0.73 0.80 0.49 0.19 0.12 0.21 0.20 0.23 0.26 0.25 0.25 0.29 0.29 0.26 0.23 0.19 0.15 0.15 0.17 0.16 0.19 0.19 0.15 0.18 0.16 0.12 0.05 0.05 0.08 0.05 0.14 0.12 0.08 0.11 0.13 0.13 0.14 0.14 0.14 0.16
0.48 0.42 0.44 0.48 0.55 0.72 0.66 0.30 0.13 0.16 0.18 0.26 0.25 0.22 0.19 0.23 0.25 0.28 0.25 0.22 0.26 0.22 0.16 0.13 0.11 0.17 0.21 0.17 0.13 0.14 0.12 0.06 0.03 0.06 0.10 0.17 0.10 0.11 0.18 0.20 0.20 0.20 0.19 0.19 0.17
0.46 0.39 0.40 0.51 0.61 0.72 0.43 0.17 0.15 0.18 0.25 0.23 0.24 0.20 0.20 0.23 0.22 0.23 0.23 0.23 0.26 0.26 0.18 0.15 0.13 0.22 0.22 0.23 0.21 0.16 0.12 0.15 0.09 0.11 0.08 0.07 0.09 0.11 0.15 0.21 0.21 0.21 0.21 0.20 0.20
0.41 0.37 0.44 0.59 0.64 0.54 0.33 0.20 0.22 0.30 0.30 0.28 0.20 0.22 0.18 0.20 0.20 0.21 0.20 0.24 0.24 0.27 0.27 0.22 0.15 0.20 0.23 0.24 0.24 0.20 0.21 0.12 0.12 0.05 0.04 0.06 0.08 0.07 0.13 0.19 0.21 0.22 0.22 0.23 0.22
0.39 0.26 0.53 0.67 0.63 0.40 0.21 0.23 0.26 0.35 0.36 0.28 0.25 0.23 0.23 0.22 0.22 0.21 0.21 0.24 0.26 0.27 0.29 0.25 0.22 0.20 0.21 0.20 0.18 0.19 0.17 0.18 0.16 0.12 0.07 0.07 0.06 0.21 0.23 0.22 0.23 0.26 0.27 0.23 0.22
0.36 0.17 0.53 0.72 0.32 0.38 0.26 0.31 0.35 0.34 0.40 0.37 0.34 0.29 0.26 0.28 0.24 0.23 0.22 0.24 0.31 0.29 0.23 0.26 0.23 0.18 0.20 0.22 0.24 0.23 0.19 0.18 0.12 0.10 0.13 0.12 0.08 0.13 0.15 0.22 0.27 0.27 0.29 0.27 0.27
0.31 0.29 0.49 0.59 0.28 0.28 0.37 0.36 0.39 0.33 0.34 0.38 0.35 0.37 0.38 0.32 0.25 0.28 0.27 0.33 0.34 0.31 0.27 0.27 0.21 0.16 0.19 0.25 0.26 0.20 0.21 0.21 0.19 0.17 0.11 0.09 0.08 0.19 0.21 0.21 0.27 0.30 0.30 0.30 0.28
0.34 0.22 0.37 0.45 0.45 0.36 0.34 0.33 0.32 0.41 0.38 0.44 0.42 0.44 0.39 0.33 0.37 0.30 0.29 0.34 0.36 0.35 0.36 0.32 0.24 0.19 0.15 0.17 0.23 0.21 0.20 0.21 0.20 0.14 0.13 0.11 0.11 0.12 0.13 0.14 0.18 0.26 0.28 0.30 0.29
0.40 0.26 0.35 0.24 0.32 0.32 0.33 0.33 0.31 0.32 0.42 0.43 0.41 0.41 0.40 0.34 0.33 0.32 0.36 0.37 0.37 0.38 0.36 0.32 0.22 0.24 0.23 0.23 0.23 0.22 0.23 0.23 0.19 0.18 0.14 0.13 0.13 0.15 0.16 0.17 0.18 0.20 0.27 0.29 0.32
0.36 0.32 0.36 0.29 0.30 0.29 0.30 0.31 0.28 0.31 0.34 0.32 0.34 0.38 0.41 0.36 0.39 0.33 0.39 0.40 0.38 0.39 0.37 0.36 0.26 0.27 0.23 0.26 0.24 0.20 0.21 0.23 0.24 0.22 0.18 0.18 0.14 0.20 0.21 0.22 0.19 0.19 0.21 0.25 0.27
0.51 0.52 0.41 0.33 0.29 0.26 0.24 0.24 0.28 0.35 0.36 0.41 0.38 0.35 0.36 0.41 0.47 0.47 0.48 0.49 0.46 0.44 0.41 0.39 0.31 0.26 0.20 0.25 0.24 0.17 0.20 0.19 0.20 0.23 0.23 0.17 0.16 0.20 0.19 0.19 0.19 0.21 0.22 0.24 0.26

GFSSW_prec_pwat_348.txt.gz
Precipitable_Water
0.90 0.87 0.82 0.79 0.72 0.67 0.62 0.59 0.58 0.56 0.53 0.52 0.51 0.49 0.48 0.47 0.40 0.31 0.20 0.29 0.36 0.35 0.39 0.35 0.45 0.52 0.66 0.60 0.64 0.60 0.33 0.28 0.38 0.43 0.46 0.52 0.47 0.52 0.53 0.46 0.38 0.32 0.26 0.25 0.37
0.96 0.94 0.90 0.85 0.78 0.72 0.67 0.63 0.59 0.55 0.53 0.52 0.52 0.48 0.47 0.48 0.31 0.27 0.35 0.37 0.34 0.35 0.37 0.29 0.33 0.44 0.51 0.54 0.56 0.46 0.31 0.32 0.46 0.51 0.49 0.51 0.49 0.48 0.47 0.46 0.36 0.31 0.31 0.32 0.37
1.06 1.05 0.99 0.92 0.85 0.78 0.69 0.63 0.58 0.55 0.52 0.51 0.50 0.47 0.46 0.47 0.21 0.30 0.38 0.36 0.35 0.35 0.40 0.36 0.35 0.39 0.39 0.50 0.53 0.49 0.34 0.41 0.43 0.50 0.55 0.48 0.48 0.51 0.47 0.43 0.40 0.30 0.25 0.27 0.31
1.14 1.12 1.04 0.99 0.93 0.85 0.75 0.62 0.56 0.54 0.51 0.50 0.49 0.47 0.46 0.36 0.10 0.35 0.39 0.37 0.37 0.34 0.34 0.32 0.30 0.27 0.32 0.37 0.48 0.42 0.48 0.46 0.48 0.51 0.49 0.46 0.51 0.47 0.47 0.49 0.44 0.36 0.29 0.27 0.26
1.21 1.16 1.09 1.06 1.00 0.90 0.81 0.64 0.55 0.53 0.53 0.51 0.50 0.49 0.35 0.18 0.16 0.34 0.38 0.36 0.37 0.29 0.28 0.27 0.27 0.26 0.24 0.31 0.36 0.41 0.45 0.46 0.47 0.48 0.44 0.44 0.41 0.43 0.43 0.52 0.43 0.35 0.30 0.25 0.27
1.22 1.20 1.15 1.10 1.05 0.97 0.84 0.73 0.54 0.51 0.52 0.51 0.50 0.50 0.30 0.14 0.24 0.33 0.35 0.33 0.34 0.29 0.25 0.28 0.27 0.29 0.24 0.26 0.29 0.35 0.37 0.39 0.39 0.38 0.39 0.34 0.35 0.33 0.34 0.39 0.30 0.27 0.25 0.25 0.27
1.27 1.21 1.17 1.14 1.07 1.00 0.88 0.74 0.54 0.47 0.50 0.49 0.50 0.43 0.26 0.16 0.29 0.33 0.34 0.30 0.33 0.32 0.24 0.25 0.27 0.22 0.28 0.23 0.28 0.26 0.21 0.24 0.28 0.32 0.27 0.26 0.19 0.19 0.21 0.25 0.16 0.19 0.22 0.25 0.27
1.27 1.19 1.15 1.12 1.05 0.99 0.88 0.71 0.54 0.48 0.46 0.46 0.48 0.37 0.17 0.25 0.33 0.26 0.30 0.28 0.31 0.33 0.30 0.30 0.29 0.23 0.23 0.29 0.25 0.20 0.20 0.16 0.21 0.27 0.28 0.26 0.15 0.20 0.24 0.20 0.12 0.14 0.18 0.22 0.26
1.21 1.16 1.13 1.07 1.00 0.97 0.86 0.74 0.55 0.51 0.51 0.48 0.34 0.27 0.15 0.31 0.22 0.28 0.29 0.25 0.27 0.30 0.31 0.32 0.28 0.20 0.23 0.19 0.19 0.25 0.18 0.18 0.19 0.25 0.26 0.24 0.17 0.21 0.23 0.17 0.15 0.16 0.16 0.18 0.22
1.15 1.10 1.07 1.04 0.96 0.92 0.81 0.73 0.61 0.54 0.52 0.49 0.41 0.23 0.21 0.19 0.25 0.28 0.29 0.27 0.23 0.23 0.21 0.23 0.24 0.17 0.16 0.15 0.14 0.18 0.17 0.17 0.16 0.21 0.22 0.20 0.17 0.19 0.18 0.17 0.16 0.16 0.16 0.16 0.18
1.00 0.99 0.96 0.97 0.90 0.89 0.76 0.61 0.41 0.34 0.40 0.28 0.26 0.23 0.21 0.28 0.28 0.25 0.28 0.26 0.23 0.20 0.12 0.17 0.14 0.11 0.16 0.18 0.19 0.21 0.18 0.16 0.18 0.19 0.17 0.14 0.12 0.10 0.12 0.14 0.14 0.15 0.15 0.14 0.14
0.68 0.65 0.64 0.65 0.72 0.85 0.79 0.57 0.63 0.57 0.31 0.39 0.36 0.35 0.35 0.37 0.22 0.23 0.28 0.18 0.18 0.12 0.15 0.13 0.09 0.16 0.19 0.20 0.19 0.17 0.15 0.13 0.13 0.15 0.13 0.11 0.07 0.08 0.08 0.09 0.11 0.11 0.13 0.13 0.14
0.46 0.47 0.49 0.49 0.58 0.68 0.64 0.73 0.92 0.73 0.38 0.32 0.37 0.32 0.29 0.33 0.25 0.23 0.25 0.21 0.16 0.14 0.13 0.10 0.12 0.18 0.16 0.16 0.15 0.14 0.12 0.12 0.11 0.13 0.13 0.10 0.04 0.04 0.07 0.09 0.10 0.11 0.11 0.13 0.13
0.42 0.40 0.42 0.45 0.52 0.66 0.52 0.81 0.86 0.69 0.26 0.25 0.32 0.36 0.32 0.31 0.23 0.31 0.30 0.24 0.19 0.14 0.15 0.14 0.16 0.14 0.13 0.13 0.14 0.10 0.15 0.14 0.12 0.10 0.06 0.11 0.03 0.04 0.05 0.06 0.08 0.09 0.10 0.10 0.12
0.43 0.41 0.40 0.52 0.48 0.49 0.66 0.80 0.71 0.52 0.09 0.25 0.33 0.43 0.38 0.28 0.27 0.27 0.34 0.28 0.20 0.19 0.19 0.14 0.15 0.15 0.13 0.13 0.16 0.12 0.17 0.14 0.13 0.10 0.10 0.08 0.06 0.04 0.06 0.05 0.06 0.08 0.10 0.11 0.12
0.45 0.42 0.42 0.38 0.46 0.60 0.72 0.74 0.53 0.19 0.10 0.20 0.29 0.27 0.27 0.29 0.29 0.31 0.29 0.31 0.29 0.22 0.23 0.20 0.23 0.20 0.17 0.18 0.18 0.19 0.14 0.13 0.14 0.12 0.05 0.08 0.08 0.04 0.06 0.08 0.10 0.11 0.12 0.13 0.14
0.48 0.42 0.40 0.46 0.30 0.59 0.70 0.46 0.17 0.12 0.20 0.19 0.21 0.26 0.26 0.24 0.25 0.27 0.26 0.26 0.22 0.18 0.16 0.17 0.18 0.21 0.21 0.16 0.18 0.16 0.12 0.05 0.04 0.06 0.04 0.13 0.11 0.07 0.11 0.16 0.16 0.15 0.16 0.16 0.16
0.51 0.44 0.42 0.48 0.54 0.63 0.57 0.26 0.12 0.16 0.18 0.26 0.26 0.25 0.19 0.23 0.24 0.24 0.23 0.20 0.24 0.23 0.21 0.16 0.11 0.18 0.22 0.18 0.14 0.15 0.12 0.06 0.03 0.04 0.07 0.12 0.06 0.10 0.19 0.19 0.22 0.21 0.20 0.20 0.18
0.51 0.42 0.43 0.51 0.56 0.63 0.37 0.16 0.15 0.18 0.26 0.25 0.24 0.21 0.20 0.23 0.23 0.23 0.21 0.20 0.22 0.24 0.19 0.17 0.17 0.23 0.23 0.24 0.21 0.17 0.13 0.16 0.10 0.11 0.07 0.06 0.07 0.08 0.14 0.20 0.21 0.22 0.23 0.20 0.19
0.42 0.38 0.46 0.58 0.63 0.49 0.28 0.17 0.21 0.29 0.32 0.28 0.19 0.22 0.19 0.20 0.20 0.21 0.21 0.24 0.22 0.25 0.26 0.21 0.15 0.23 0.25 0.25 0.25 0.21 0.22 0.13 0.13 0.05 0.04 0.05 0.07 0.05 0.12 0.18 0.21 0.21 0.21 0.21 0.23
0.39 0.26 0.49 0.65 0.65 0.35 0.17 0.21 0.27 0.34 0.37 0.29 0.25 0.23 0.24 0.23 0.23 0.21 0.21 0.25 0.27 0.27 0.27 0.24 0.20 0.18 0.23 0.21 0.19 0.20 0.18 0.18 0.17 0.13 0.07 0.05 0.05 0.13 0.21 0.19 0.19 0.23 0.25 0.24 0.25
0.35 0.20 0.50 0.67 0.28 0.33 0.22 0.28 0.35 0.35 0.40 0.35 0.35 0.29 0.26 0.28 0.24 0.23 0.22 0.25 0.33 0.31 0.25 0.27 0.22 0.16 0.17 0.23 0.26 0.26 0.20 0.20 0.14 0.12 0.14 0.11 0.07 0.14 0.15 0.18 0.21 0.23 0.26 0.27 0.26
0.29 0.28 0.44 0.55 0.26 0.27 0.33 0.35 0.37 0.33 0.33 0.35 0.33 0.37 0.39 0.32 0.25 0.29 0.28 0.36 0.38 0.34 0.30 0.29 0.23 0.17 0.17 0.20 0.24 0.21 0.25 0.25 0.21 0.19 0.13 0.10 0.09 0.17 0.20 0.20 0.22 0.22 0.27 0.26 0.28
0.32 0.20 0.33 0.44 0.43 0.34 0.31 0.32 0.32 0.43 0.40 0.42 0.38 0.41 0.38 0.34 0.38 0.31 0.32 0.39 0.44 0.40 0.40 0.36 0.26 0.21 0.16 0.18 0.22 0.18 0.20 0.22 0.23 0.18 0.15 0.14 0.13 0.15 0.16 0.16 0.18 0.18 0.21 0.28 0.27
0.38 0.27 0.35 0.23 0.31 0.31 0.32 0.33 0.30 0.32 0.41 0.43 0.40 0.38 0.36 0.30 0.33 0.33 0.38 0.38 0.42 0.45 0.42 0.36 0.25 0.27 0.26 0.26 0.25 0.23 0.21 0.22 0.20 0.20 0.17 0.19 0.17 0.18 0.19 0.19 0.20 0.21 0.21 0.21 0.25
0.36 0.33 0.38 0.32 0.32 0.29 0.29 0.29 0.28 0.30 0.34 0.32 0.34 0.38 0.39 0.36 0.37 0.31 0.35 0.38 0.35 0.41 0.41 0.47 0.29 0.30 0.25 0.28 0.27 0.22 0.24 0.24 0.23 0.22 0.20 0.20 0.16 0.26 0.26 0.26 0.24 0.24 0.23 0.22 0.23
0.50 0.52 0.42 0.34 0.31 0.27 0.24 0.25 0.27 0.30 0.31 0.40 0.36 0.33 0.33 0.37 0.42 0.39 0.39 0.40 0.39 0.36 0.35 0.38 0.34 0.29 0.22 0.28 0.27 0.18 0.22 0.22 0.22 0.24 0.23 0.18 0.20 0.24 0.23 0.25 0.26 0.26 0.25 0.25 0.26